This demonstration page uses our WeatherBlox Daily Observations layout. Learn more.

Left ArrowRight Arrow

38.83388, -104.82136

Hourly Observations for March 27, 2021

Temp ( °F °C ) Dew Point ( °F °C ) Humidity (%) Winds ( mph kmh ) Pressure ( in mb ) Visibility ( mi km ) Precip ( " mm )
12:58 am 00:58 Mostly Clear 32 0 21 -6.2 63 63 NW 5 7 29.68 1005 10 16 0.00 0.00
1:58 am 01:58 Clear 33 0.4 20 -6.5 60 60 Calm 29.67 1005 10 16 0.00 0.00
2:58 am 02:58 Clear 31 -0.4 18 -8 57 57 WNW 7 11 29.66 1005 10 16 0.00 0.00
3:58 am 03:58 Clear 31 -0.3 14 -9.9 49 49 WNW 7 11 29.68 1005 10 16 0.00 0.00
4:58 am 04:58 Clear 31 -0.4 14 -10.1 48 48 W 3 6 29.68 1005 10 16 0.00 0.00
5:58 am 05:58 Clear 31 -0.4 12 -11 45 45 WNW 7 11 29.74 1007 10 16 0.00 0.00
6:58 am 06:58 Sunny 32 0.1 11 -11.9 40 40 W 6 9 29.75 1008 10 16 0.00 0.00
7:58 am 07:58 Sunny 35 1.6 12 -11.3 38 38 N 8 13 29.76 1008 10 16 0.00 0.00
8:58 am 08:58 Sunny 37 2.6 12 -11.3 35 35 NNE 6 9 29.78 1008 10 16 0.00 0.00
9:58 am 09:58 Sunny 39 4 12 -11.3 32 32 N 12 19 29.83 1010 10 16 0.00 0.00
10:58 am 10:58 Sunny 41 5.2 13 -10.6 31 31 NE 9 15 29.83 1010 10 16 0.00 0.00
11:58 am 11:58 Partly Cloudy 42 5.5 11 -11.4 29 29 NNE 10 17 29.82 1010 10 16 0.00 0.00
12:58 pm 12:58 Mostly Sunny 43 6 13 -10.5 30 30 NNE 7 11 29.84 1011 10 16 0.00 0.00
1:58 pm 13:58 Partly Cloudy 43 5.9 17 -8.5 35 35 NE 6 9 29.84 1011 10 16 0.00 0.00
2:58 pm 14:58 Mostly Cloudy 44 6.6 17 -8.4 34 34 NW 3 6 29.84 1011 10 16 0.00 0.00
3:58 pm 15:58 Partly Cloudy 47 8.2 14 -10.2 26 26 Calm 29.82 1010 10 16 0.00 0.00
4:58 pm 16:58 Mostly Cloudy 44 6.8 15 -9.6 30 30 SE 8 13 29.85 1011 10 16 0.00 0.00
5:58 pm 17:58 Mostly Cloudy 44 6.4 17 -8.2 35 35 N 5 7 29.88 1012 10 16 0.00 0.00
6:58 pm 18:58 Mostly Cloudy 41 5 18 -7.7 40 40 NW 8 13 29.92 1013 10 16 0.00 0.00
7:58 pm 19:58 Clear 38 3.5 19 -7.4 45 45 W 3 6 29.94 1014 10 16 0.00 0.00
8:58 pm 20:58 Clear 39 4.1 16 -8.7 39 39 WSW 5 7 29.97 1015 10 16 0.00 0.00
9:58 pm 21:58 Clear 38 3.4 15 -9.5 39 39 SSW 6 9 30.01 1016 10 16 0.00 0.00
10:58 pm 22:58 Clear 38 3.3 15 -9.7 38 38 SSW 10 17 29.98 1015 10 16 0.00 0.00
11:58 pm 23:58 Clear 38 3.1 13 -10.7 36 36 SSW 7 11 29.99 1016 10 16 0.00 0.00

Powered by AerisWeather